sat.trackr.live / text

‹ back to catalog

STARLINK-32290

NORAD 60359 · 2024-138E

PAYLOAD ACTIVE UNKNOWN

§ Identity

Operator
Country
US
Launch date
2024-08-04
Launch site
AFWTR
Launch vehicle
Mass (kg)
RCS (m²)

Purposes: comms

External: N2YO · Heavens-Above · Gunter

§ Orbital elements

Epoch: 2026-09-21T19:30:34.504704Z

Period
93.85 min
Inclination
53.1589°
Eccentricity
0.0001405
Mean motion
15.34389945 rev/d
Perigee alt
461.8 km
Apogee alt
463.7 km
Semi-major
6,840.9 km
B*
1.2877e-5
RAAN
117.3094°
Arg perigee
74.8746°
Mean anomaly
285.2412°
Rev number
10,170

§ Raw data

STARLINK-322901 60359U 24138E   26264.81289936  .00000059  00000+0  12877-4 0  99992 60359  53.1589 117.3094 0001405  74.8746 285.2412 15.34389945101701

JSON: /api/v1/satellites/60359 · /tle

For live sub-satellite position, see the globe view (requires WebGL).

§ Visibility from observer

Set your observer location to see the next 7 days of passes ≥ 10°. The values pass through the URL so the page stays shareable.

No JS? Fill the form by hand. The geolocation button needs JavaScript.